#timestamp,LO_Frequency,Hit,StdDev 
1649430015.8,286047005.8,N
1649430035.7,286047006.0,N
1649430055.5,286047001.4,N
1649430075.4,286046998.6,N
1649430095.2,286046996.7,N
1649430115.0,286046991.8,N
1649430115.9,286046991.8,N
1649430135.8,286046992.7,N
1649430155.6,286046994.5,N
1649430175.5,286046999.3,N
1649430195.3,286047001.9,N
1649430215.1,286047003.8,N
1649430235.9,286047000.0,N
1649430255.7,286046998.3,N
1649430275.5,286046995.1,N
1649430295.4,286046997.5,N
1649430315.2,286046999.5,N
1649430335.0,286046995.1,N
1649430336.0,286046995.1,N
1649430355.8,286046989.5,N
1649430375.6,286046989.0,N
1649430395.5,286046991.9,N
1649430415.3,286046995.4,N
1649430435.1,286047001.1,N
1649430455.9,286046997.4,N
1649430475.7,286046990.2,N
1649430495.6,286046994.8,N
1649430515.4,286046997.5,N
1649430535.2,286046998.1,N
1649430555.1,286046999.1,N
1649430556.0,286046999.1,N
1649430575.8,286046997.1,N
1649430595.6,286047004.0,N
1649430615.5,286047003.5,N
1649430635.3,286047007.4,N
1649430655.2,286047007.5,N
1649430675.9,286047008.7,N
1649430695.7,286047004.0,N
1649430715.6,286047001.0,N
1649430735.4,286047000.7,N
1649430755.2,286046998.1,N
1649430775.1,286046998.3,N
1649430776.0,286046998.3,N
1649430795.8,286046998.7,N
1649430815.7,286046995.5,N
1649430835.5,286047002.7,N
1649430855.3,286047000.3,N
1649430875.2,286047002.4,N
1649430895.0,286047001.2,N
1649430895.9,286047001.2,N
1649430915.8,286047002.5,N
1649430935.6,286047003.5,N
1649430955.4,286047005.3,N
1649430975.3,286047010.7,N
1649430995.1,286047011.4,N
1649430996.0,286047011.4,N
1649431015.8,286047006.4,N
1649431035.7,286047005.8,N
1649431055.5,286047001.3,N
1649431075.3,286047005.7,N
1649431095.2,286047010.5,N
1649431115.0,286047011.6,N
1649431115.9,286047011.6,N
1649431135.8,286047013.0,N
1649431155.6,286047015.4,Y
1649431175.4,286047010.5,P
1649431195.3,286047008.3,N
1649431215.1,286047006.4,N
1649431235.9,286046999.2,N
1649431255.7,286046991.6,N
1649431275.5,286046986.0,N
1649431295.4,286046986.8,N
1649431315.2,286046990.7,N
1649431335.0,286046997.4,N
1649431335.9,286046997.4,N
1649431355.8,286046992.6,N
1649431375.6,286046985.0,N
1649431395.4,286046980.4,N
1649431415.3,286046978.8,N
1649431435.1,286046978.8,N
1649431455.9,286046969.5,Y
1649431475.7,286046972.6,P
1649431495.5,286046972.8,N
1649431515.4,286046970.0,P
1649431535.2,286046968.0,Y
1649431555.1,286046990.4,P
1649431556.0,286046990.4,N
1649431575.8,286046988.4,N
1649431595.6,286046984.0,N
1649431615.5,286046984.3,Y
1649431635.3,286046993.7,P
1649431655.1,286046990.1,N
1649431675.9,286046989.0,P
1649431695.7,286046990.0,Y
1649431715.6,286046996.7,P
1649431735.4,286046993.7,N
1649431755.2,286046994.1,N
1649431775.1,286046994.6,N
1649431776.0,286046994.6,N
1649431795.8,286046993.4,Y
1649431815.6,286046998.1,P
1649431835.5,286046999.2,N
1649431855.3,286046997.8,N
1649431875.2,286046996.8,N
1649431895.9,286046998.8,N
1649431915.7,286046997.1,N
1649431935.6,286046995.8,N
1649431955.4,286046991.7,Y
1649431975.2,286046993.7,P
1649431995.1,286046991.7,P
1649431996.0,286046991.7,P
1649432015.8,286046991.8,Y
1649432035.7,286047000.3,P
1649432055.5,286047000.7,N
1649432075.3,286047002.2,N
1649432095.2,286047000.3,N
1649432115.0,286046998.1,N
1649432115.9,286046998.1,N
1649432135.8,286046997.1,N
1649432155.6,286046998.6,N
1649432175.4,286047001.5,N
1649432195.3,286047004.3,N
1649432215.1,286046999.7,N
1649432235.8,286047005.5,N
1649432255.7,286047003.3,N
1649432275.5,286047000.8,N
1649432295.4,286047001.1,N
1649432315.2,286047000.9,N
1649432335.0,286046998.3,N
1649432335.9,286046998.3,N
1649432355.8,286046995.4,N
1649432375.6,286046993.5,N
1649432395.4,286046993.4,N
1649432415.3,286046995.7,N
1649432435.1,286046995.6,N
1649432455.8,286046997.1,N
1649432475.7,286046993.8,N
1649432495.5,286046991.7,N
1649432515.4,286046992.9,N
1649432535.2,286046990.1,N
1649432555.0,286047002.0,N
1649432555.9,286047002.0,N
1649432575.8,286047008.1,N
1649432595.6,286047005.4,N
1649432615.4,286047001.9,N
1649432635.3,286047000.5,N
1649432655.1,286046995.0,N
1649432675.9,286046994.2,N
1649432695.7,286046991.8,N
1649432715.5,286046991.9,N
1649432735.4,286046996.0,N
1649432755.2,286046995.1,N
1649432775.0,286046994.2,N
1649432775.9,286046994.2,N
1649432795.8,286046990.2,N
1649432815.6,286046989.0,N
1649432835.5,286046990.4,N
1649432855.3,286046988.5,N
1649432875.1,286046989.4,N
1649432895.9,286046991.3,N
1649432915.7,286046986.9,N
1649432935.5,286046995.8,N
1649432955.4,286047002.1,N
1649432975.2,286046998.2,N
1649432995.1,286046995.0,N
1649432996.0,286046995.0,N
1649433015.8,286046994.2,N
1649433035.6,286046992.6,N
1649433055.5,286046989.9,N
1649433075.3,286046985.6,N
1649433095.2,286046984.5,N
1649433115.9,286046991.0,N
1649433135.7,286046989.8,N
1649433155.6,286046986.9,N
1649433175.4,286046991.9,N
1649433195.2,286046990.4,N
1649433215.1,286046991.0,N
1649433216.0,286046991.0,N
1649433235.8,286046990.0,N
1649433255.7,286046993.7,N
1649433275.5,286047002.1,N
1649433295.3,286047001.1,N
1649433315.2,286046996.1,N
1649433335.0,286046995.7,N
1649433335.9,286046995.7,N
1649433355.8,286046997.8,N
1649433375.6,286046994.8,N
1649433395.4,286046990.8,N
1649433415.3,286046997.5,N
1649433435.1,286047002.0,N
1649433436.0,286047002.0,N
1649433455.8,286047001.7,N
1649433475.7,286047000.2,N
1649433495.5,286046995.5,N
1649433515.3,286046998.8,N
1649433535.2,286047003.2,N
1649433555.0,286047001.9,N
1649433555.9,286047001.9,N
1649433575.8,286047001.6,N
1649433595.6,286047001.9,N
